Location: Chuathbaluk
(61.5726°N, 159.2454°W)
Time: 13:24:57
(UTC+00:00)

CUTE-I - Visible Passes

Search period start: 16 January 2021 00:00
Search period end: 26 January 2021 00:00
Orbit: 810 x 825 km, 98.7° (Epoch: 15 January)

Date Brightness Start Highest point End Pass type
(mag) Time Alt. Az. Time Alt. Az. Time Alt. Az.
16 Jan ? 04:19:26 10° S 04:24:37 48° W 04:29:49 10° NNW visible
16 Jan ? 06:03:47 10° WSW 06:06:02 12° WNW 06:08:16 10° NW visible
16 Jan ? 16:25:11 10° NNE 16:30:01 34° E 16:34:49 10° SSE visible
16 Jan ? 18:05:10 10° NNE 18:10:29 67° WNW 18:15:45 10° SW visible
17 Jan ? 03:57:41 10° S 04:03:01 64° WSW 04:08:21 10° NNW visible
17 Jan ? 05:40:42 10° WSW 05:44:07 17° W 05:47:34 10° NW visible
17 Jan ? 16:03:52 10° NNE 16:08:17 25° E 16:12:39 10° SE visible
17 Jan ? 17:43:37 10° NNE 17:49:00 87° WNW 17:54:19 10° SSW visible
18 Jan ? 03:36:04 10° SSE 03:41:27 84° WSW 03:46:51 10° NNW visible
18 Jan ? 05:18:07 10° SW 05:22:17 23° W 05:26:29 10° NW visible
18 Jan ? 15:42:42 10° NE 15:46:28 19° E 15:50:13 10° SE visible
18 Jan ? 17:22:07 10° NNE 17:27:28 72° ESE 17:32:47 10° SSW visible
19 Jan ? 03:14:36 10° SSE 03:19:57 75° ENE 03:25:19 10° NNW visible
19 Jan ? 04:55:51 10° SSW 05:00:31 30° W 05:05:13 10° NNW visible
19 Jan ? 15:21:47 10° NE 15:24:36 14° E 15:27:24 10° ESE visible
19 Jan ? 17:00:38 10° NNE 17:05:53 54° E 17:11:06 10° S visible
20 Jan ? 02:53:16 10° SE 02:58:30 58° ENE 03:03:46 10° NNW visible
20 Jan ? 04:33:48 10° SSW 04:38:49 39° W 04:43:51 10° NNW visible
20 Jan ? 15:01:59 10° ENE 15:02:39 10° ENE 15:03:19 10° E visible
20 Jan ? 16:39:12 10° NNE 16:44:15 40° E 16:49:15 10° SSE visible
20 Jan ? 18:19:19 10° NNE 18:24:31 56° WNW 18:29:42 10° SW visible
21 Jan ? 04:11:56 10° S 04:17:10 53° W 04:22:25 10° NNW visible
21 Jan ? 05:55:46 10° WSW 05:58:29 14° WNW 06:01:12 10° NW visible
21 Jan ? 16:17:49 10° NNE 16:22:32 30° E 16:27:12 10° SSE visible
21 Jan ? 17:57:45 10° NNE 18:03:05 73° WNW 18:08:23 10° SSW visible
22 Jan ? 03:50:14 10° S 03:55:35 70° WSW 04:00:57 10° NNW visible
22 Jan ? 05:32:53 10° SW 05:36:36 19° W 05:40:19 10° NW visible
22 Jan ? 15:56:34 10° NE 16:00:46 23° E 16:04:57 10° SE visible
22 Jan ? 17:36:13 10° NNE 17:41:35 86° ESE 17:46:55 10° SSW visible
23 Jan ? 03:28:41 10° SSE 03:34:02 89° ENE 03:39:26 10° NNW visible
23 Jan ? 05:10:26 10° SW 05:14:48 25° W 05:19:10 10° NNW visible
23 Jan ? 15:35:27 10° NE 15:38:56 17° E 15:42:24 10° ESE visible
23 Jan ? 17:14:42 10° NNE 17:20:02 66° ESE 17:25:19 10° S visible
24 Jan ? 03:07:15 10° SSE 03:12:34 69° ENE 03:17:53 10° NNW visible
24 Jan ? 04:48:15 10° SSW 04:53:02 33° W 04:57:51 10° NNW visible
24 Jan ? 15:14:42 10° NE 15:17:02 13° ENE 15:19:22 10° ESE visible
24 Jan ? 16:53:15 10° NNE 16:58:26 49° E 17:03:34 10° S visible
25 Jan ? 04:26:15 10° S 04:31:21 44° W 04:36:28 10° NNW visible
25 Jan ? 06:11:17 10° W 06:12:51 11° WNW 06:14:27 10° WNW visible
25 Jan ? 16:31:50 10° NNE 16:36:46 37° E 16:41:40 10° SSE visible
25 Jan ? 18:11:52 10° NNE 18:17:08 61° WNW 18:22:22 10° SW visible
